contact:dominique.lefevre@mio.osupytheas.fr, maurice.libes@osupytheas.fr, didier.mallarino@osupytheas.fr
Project:EMSO http://www.emso-fr.org/EMSO-France
Depth: 2436.0 m
Title:EMSO Ligure Ouest : Data MII capteur OXYGEN
DateTime,Latitude,Longitude,Optode-Type,Optode_Serial,Oxygen,Saturation_Oxygen,Temperature
DateTime,Latitude,Longitude,Optode-Type,Optode_Serial,µmol.l-1,%,degC
2017-11-01T00:01:30,42.805,6.029,4330,1995,197.269,60.326,13.287
2017-11-01T00:04:30,42.805,6.029,4330,1995,197.348,60.349,13.286
2017-11-01T00:07:30,42.805,6.029,4330,1995,197.326,60.343,13.286
2017-11-01T00:10:30,42.805,6.029,4330,1995,197.370,60.356,13.286
2017-11-01T00:13:30,42.805,6.029,4330,1995,197.357,60.352,13.286
2017-11-01T00:16:30,42.805,6.029,4330,1995,197.347,60.349,13.286
2017-11-01T00:19:30,42.805,6.029,4330,1995,197.331,60.344,13.286
2017-11-01T00:22:30,42.805,6.029,4330,1995,197.300,60.335,13.286
2017-11-01T00:25:30,42.805,6.029,4330,1995,197.431,60.375,13.286
2017-11-01T00:28:30,42.805,6.029,4330,1995,197.094,60.272,13.286
2017-11-01T00:31:30,42.805,6.029,4330,1995,197.284,60.330,13.286
2017-11-01T00:34:30,42.805,6.029,4330,1995,197.073,60.265,13.286
2017-11-01T00:37:30,42.805,6.029,4330,1995,197.189,60.301,13.286
2017-11-01T00:40:30,42.805,6.029,4330,1995,197.178,60.297,13.286
2017-11-01T00:43:30,42.805,6.029,4330,1995,197.265,60.324,13.286
2017-11-01T00:46:30,42.805,6.029,4330,1995,197.292,60.332,13.286
2017-11-01T00:49:30,42.805,6.029,4330,1995,197.137,60.285,13.286
2017-11-01T00:52:30,42.805,6.029,4330,1995,197.294,60.333,13.286
2017-11-01T00:55:30,42.805,6.029,4330,1995,197.407,60.367,13.286
2017-11-01T00:58:30,42.805,6.029,4330,1995,197.366,60.355,13.286
2017-11-01T01:01:30,42.805,6.029,4330,1995,197.282,60.329,13.286
2017-11-01T01:04:30,42.805,6.029,4330,1995,197.250,60.320,13.286
2017-11-01T01:07:30,42.805,6.029,4330,1995,197.451,60.381,13.286
2017-11-01T01:10:30,42.805,6.029,4330,1995,197.504,60.397,13.286
2017-11-01T01:13:30,42.805,6.029,4330,1995,197.375,60.358,13.286
2017-11-01T01:16:30,42.805,6.029,4330,1995,197.432,60.375,13.286
2017-11-01T01:19:30,42.805,6.029,4330,1995,197.495,60.395,13.286
2017-11-01T01:22:30,42.805,6.029,4330,1995,197.373,60.357,13.287
2017-11-01T01:25:30,42.805,6.029,4330,1995,197.343,60.348,13.286
2017-11-01T01:28:30,42.805,6.029,4330,1995,197.325,60.343,13.286
2017-11-01T01:31:30,42.805,6.029,4330,1995,197.289,60.331,13.286
2017-11-01T01:34:30,42.805,6.029,4330,1995,197.319,60.341,13.287
2017-11-01T01:37:30,42.805,6.029,4330,1995,197.267,60.325,13.286
2017-11-01T01:40:30,42.805,6.029,4330,1995,197.468,60.386,13.287
2017-11-01T01:43:30,42.805,6.029,4330,1995,197.439,60.378,13.287
2017-11-01T01:46:30,42.805,6.029,4330,1995,197.399,60.365,13.286
2017-11-01T01:49:30,42.805,6.029,4330,1995,197.433,60.376,13.286
2017-11-01T01:52:29,42.805,6.029,4330,1995,197.489,60.393,13.286
2017-11-01T01:55:29,42.805,6.029,4330,1995,197.533,60.406,13.286
2017-11-01T01:58:29,42.805,6.029,4330,1995,197.722,60.464,13.287
2017-11-01T02:01:29,42.805,6.029,4330,1995,197.427,60.374,13.287
2017-11-01T02:04:29,42.805,6.029,4330,1995,197.319,60.341,13.286
2017-11-01T02:07:29,42.805,6.029,4330,1995,197.505,60.398,13.286
2017-11-01T02:10:29,42.805,6.029,4330,1995,197.628,60.435,13.286
2017-11-01T02:13:29,42.805,6.029,4330,1995,197.527,60.405,13.287
2017-11-01T02:16:29,42.805,6.029,4330,1995,197.688,60.454,13.287
2017-11-01T02:19:29,42.805,6.029,4330,1995,197.733,60.468,13.287
2017-11-01T02:22:29,42.805,6.029,4330,1995,197.842,60.500,13.286
2017-11-01T02:25:29,42.805,6.029,4330,1995,197.930,60.528,13.286
2017-11-01T02:28:29,42.805,6.029,4330,1995,197.914,60.522,13.286
2017-11-01T02:31:29,42.805,6.029,4330,1995,197.985,60.544,13.286
2017-11-01T02:34:29,42.805,6.029,4330,1995,197.978,60.542,13.286
2017-11-01T02:37:29,42.805,6.029,4330,1995,197.823,60.495,13.287
2017-11-01T02:40:29,42.805,6.029,4330,1995,197.833,60.498,13.286
2017-11-01T02:43:29,42.805,6.029,4330,1995,198.027,60.557,13.286
2017-11-01T02:46:29,42.805,6.029,4330,1995,198.073,60.571,13.286
2017-11-01T02:49:29,42.805,6.029,4330,1995,198.143,60.593,13.286
2017-11-01T02:52:29,42.805,6.029,4330,1995,198.172,60.601,13.286
2017-11-01T02:55:29,42.805,6.029,4330,1995,198.175,60.602,13.286
2017-11-01T02:58:29,42.805,6.029,4330,1995,198.195,60.609,13.286
2017-11-01T03:01:29,42.805,6.029,4330,1995,198.135,60.590,13.286
2017-11-01T03:04:29,42.805,6.029,4330,1995,198.022,60.556,13.286
2017-11-01T03:07:29,42.805,6.029,4330,1995,198.069,60.570,13.286
2017-11-01T03:10:29,42.805,6.029,4330,1995,197.982,60.544,13.286
2017-11-01T03:13:29,42.805,6.029,4330,1995,198.152,60.596,13.287
2017-11-01T03:16:29,42.805,6.029,4330,1995,198.092,60.577,13.286
2017-11-01T03:19:29,42.805,6.029,4330,1995,198.075,60.572,13.287
2017-11-01T03:22:29,42.805,6.029,4330,1995,198.033,60.559,13.286
2017-11-01T03:25:29,42.805,6.029,4330,1995,197.926,60.526,13.286
2017-11-01T03:28:29,42.805,6.029,4330,1995,197.844,60.501,13.286
2017-11-01T03:31:29,42.805,6.029,4330,1995,197.644,60.441,13.287
2017-11-01T03:34:29,42.805,6.029,4330,1995,197.665,60.447,13.287
2017-11-01T03:37:29,42.805,6.029,4330,1995,197.681,60.452,13.287
2017-11-01T03:40:29,42.805,6.029,4330,1995,197.723,60.466,13.288
2017-11-01T03:43:29,42.805,6.029,4330,1995,197.817,60.494,13.287
2017-11-01T03:46:29,42.805,6.029,4330,1995,197.759,60.477,13.288
2017-11-01T03:49:29,42.805,6.029,4330,1995,197.446,60.381,13.287
2017-11-01T03:52:29,42.805,6.029,4330,1995,197.601,60.428,13.287
2017-11-01T03:55:29,42.805,6.029,4330,1995,197.533,60.406,13.286
2017-11-01T03:58:29,42.805,6.029,4330,1995,197.413,60.370,13.287
2017-11-01T04:01:29,42.805,6.029,4330,1995,197.670,60.449,13.287
2017-11-01T04:04:29,42.805,6.029,4330,1995,197.635,60.438,13.287
2017-11-01T04:07:29,42.805,6.029,4330,1995,197.559,60.414,13.287
2017-11-01T04:10:29,42.805,6.029,4330,1995,197.601,60.428,13.287
2017-11-01T04:13:29,42.805,6.029,4330,1995,197.698,60.457,13.287
2017-11-01T04:16:29,42.805,6.029,4330,1995,197.589,60.426,13.289
2017-11-01T04:19:29,42.805,6.029,4330,1995,197.475,60.388,13.286
2017-11-01T04:22:29,42.805,6.029,4330,1995,197.671,60.448,13.286
2017-11-01T04:25:29,42.805,6.029,4330,1995,197.642,60.440,13.287
2017-11-01T04:28:29,42.805,6.029,4330,1995,197.558,60.414,13.286
2017-11-01T04:31:29,42.805,6.029,4330,1995,197.472,60.389,13.287
2017-11-01T04:34:29,42.805,6.029,4330,1995,197.573,60.419,13.287
2017-11-01T04:37:29,42.805,6.029,4330,1995,197.660,60.446,13.287
2017-11-01T04:40:29,42.805,6.029,4330,1995,197.734,60.468,13.287
2017-11-01T04:43:29,42.805,6.029,4330,1995,198.051,60.565,13.287
2017-11-01T04:46:29,42.805,6.029,4330,1995,197.988,60.545,13.286
2017-11-01T04:49:29,42.805,6.029,4330,1995,197.830,60.499,13.288
2017-11-01T04:52:29,42.805,6.029,4330,1995,197.911,60.522,13.286
2017-11-01T04:55:29,42.805,6.029,4330,1995,197.931,60.528,13.287
2017-11-01T04:58:29,42.805,6.029,4330,1995,197.838,60.500,13.287
2017-11-01T05:01:29,42.805,6.029,4330,1995,198.005,60.552,13.287
2017-11-01T05:04:29,42.805,6.029,4330,1995,198.002,60.551,13.287
2017-11-01T05:07:29,42.805,6.029,4330,1995,197.906,60.521,13.287
2017-11-01T05:10:29,42.805,6.029,4330,1995,198.085,60.576,13.287
2017-11-01T05:13:29,42.805,6.029,4330,1995,197.875,60.511,13.286
2017-11-01T05:16:29,42.805,6.029,4330,1995,197.875,60.511,13.287
2017-11-01T05:19:29,42.805,6.029,4330,1995,197.843,60.502,13.287
2017-11-01T05:22:29,42.805,6.029,4330,1995,197.867,60.508,13.286
2017-11-01T05:25:29,42.805,6.029,4330,1995,197.998,60.548,13.287
2017-11-01T05:28:29,42.805,6.029,4330,1995,198.062,60.568,13.286
2017-11-01T05:31:29,42.805,6.029,4330,1995,197.807,60.491,13.287
2017-11-01T05:34:29,42.805,6.029,4330,1995,197.906,60.522,13.288
2017-11-01T05:37:29,42.805,6.029,4330,1995,197.799,60.488,13.287
2017-11-01T05:40:29,42.805,6.029,4330,1995,197.772,60.480,13.287
2017-11-01T05:43:29,42.805,6.029,4330,1995,197.990,60.547,13.287
2017-11-01T05:46:29,42.805,6.029,4330,1995,197.871,60.512,13.288
2017-11-01T05:49:29,42.805,6.029,4330,1995,197.856,60.506,13.287
2017-11-01T05:52:29,42.805,6.029,4330,1995,197.793,60.489,13.289
2017-11-01T05:55:29,42.805,6.029,4330,1995,197.784,60.483,13.287
2017-11-01T05:58:29,42.805,6.029,4330,1995,197.709,60.460,13.287
2017-11-01T06:01:29,42.805,6.029,4330,1995,197.479,60.391,13.288
2017-11-01T06:04:29,42.805,6.029,4330,1995,197.513,60.401,13.287
2017-11-01T06:07:29,42.805,6.029,4330,1995,197.725,60.466,13.287
2017-11-01T06:10:29,42.805,6.029,4330,1995,197.589,60.424,13.287
2017-11-01T06:13:29,42.805,6.029,4330,1995,197.434,60.378,13.288
2017-11-01T06:16:29,42.805,6.029,4330,1995,197.629,60.436,13.287
2017-11-01T06:19:29,42.805,6.029,4330,1995,197.575,60.419,13.287
2017-11-01T06:22:29,42.805,6.029,4330,1995,197.688,60.456,13.288
2017-11-01T06:25:29,42.805,6.029,4330,1995,197.739,60.471,13.288
2017-11-01T06:28:29,42.805,6.029,4330,1995,197.573,60.418,13.286
2017-11-01T06:31:29,42.805,6.029,4330,1995,197.591,60.424,13.287
2017-11-01T06:34:29,42.805,6.029,4330,1995,197.522,60.403,13.287
2017-11-01T06:37:29,42.805,6.029,4330,1995,197.498,60.396,13.287
2017-11-01T06:40:29,42.805,6.029,4330,1995,197.755,60.475,13.287
2017-11-01T06:43:29,42.805,6.029,4330,1995,197.902,60.520,13.287
2017-11-01T06:46:29,42.805,6.029,4330,1995,197.542,60.410,13.287
2017-11-01T06:49:29,42.805,6.029,4330,1995,197.742,60.471,13.287
2017-11-01T06:52:29,42.805,6.029,4330,1995,197.544,60.410,13.287
2017-11-01T06:55:29,42.805,6.029,4330,1995,197.731,60.468,13.288
2017-11-01T06:58:29,42.805,6.029,4330,1995,197.606,60.429,13.287
2017-11-01T07:01:29,42.805,6.029,4330,1995,197.419,60.372,13.287
2017-11-01T07:04:29,42.805,6.029,4330,1995,197.603,60.428,13.287
2017-11-01T07:07:29,42.805,6.029,4330,1995,197.674,60.450,13.287
2017-11-01T07:10:29,42.805,6.029,4330,1995,197.624,60.434,13.287
2017-11-01T07:13:29,42.805,6.029,4330,1995,197.897,60.519,13.287
2017-11-01T07:16:29,42.805,6.029,4330,1995,197.930,60.529,13.288
2017-11-01T07:19:29,42.805,6.029,4330,1995,197.947,60.533,13.287
2017-11-01T07:22:29,42.805,6.029,4330,1995,197.724,60.468,13.289
2017-11-01T07:25:29,42.805,6.029,4330,1995,197.785,60.485,13.288
2017-11-01T07:28:29,42.805,6.029,4330,1995,197.519,60.405,13.289
2017-11-01T07:31:29,42.805,6.029,4330,1995,197.546,60.411,13.287
2017-11-01T07:34:29,42.805,6.029,4330,1995,197.627,60.435,13.287
2017-11-01T07:37:29,42.805,6.029,4330,1995,197.559,60.414,13.286
2017-11-01T07:40:29,42.805,6.029,4330,1995,197.477,60.390,13.287
2017-11-01T07:43:29,42.805,6.029,4330,1995,197.312,60.339,13.287
2017-11-01T07:46:29,42.805,6.029,4330,1995,197.291,60.333,13.287
2017-11-01T07:49:29,42.805,6.029,4330,1995,197.494,60.396,13.288
2017-11-01T07:52:29,42.805,6.029,4330,1995,197.457,60.383,13.286
2017-11-01T07:55:29,42.805,6.029,4330,1995,197.551,60.412,13.287
2017-11-01T07:58:29,42.805,6.029,4330,1995,197.322,60.342,13.287
2017-11-01T08:01:29,42.805,6.029,4330,1995,197.213,60.309,13.287
2017-11-01T08:04:29,42.805,6.029,4330,1995,197.149,60.289,13.287
2017-11-01T08:07:29,42.805,6.029,4330,1995,197.169,60.295,13.286
2017-11-01T08:10:29,42.805,6.029,4330,1995,197.251,60.321,13.287
2017-11-01T08:13:29,42.805,6.029,4330,1995,197.287,60.331,13.287
2017-11-01T08:16:29,42.805,6.029,4330,1995,197.412,60.370,13.287
2017-11-01T08:19:29,42.805,6.029,4330,1995,197.326,60.343,13.287
2017-11-01T08:22:29,42.805,6.029,4330,1995,197.330,60.344,13.287
2017-11-01T08:25:29,42.805,6.029,4330,1995,197.536,60.408,13.287
2017-11-01T08:28:29,42.805,6.029,4330,1995,197.464,60.386,13.287
2017-11-01T08:31:29,42.805,6.029,4330,1995,197.276,60.328,13.287
2017-11-01T08:34:29,42.805,6.029,4330,1995,197.048,60.259,13.287
2017-11-01T08:37:29,42.805,6.029,4330,1995,197.237,60.316,13.287
2017-11-01T08:40:29,42.805,6.029,4330,1995,197.214,60.309,13.287
2017-11-01T08:43:29,42.805,6.029,4330,1995,197.160,60.292,13.286
2017-11-01T08:46:29,42.805,6.029,4330,1995,197.314,60.339,13.287
2017-11-01T08:49:29,42.805,6.029,4330,1995,197.486,60.392,13.287
2017-11-01T08:52:29,42.805,6.029,4330,1995,197.407,60.369,13.287
2017-11-01T08:55:29,42.805,6.029,4330,1995,197.422,60.373,13.287
2017-11-01T08:58:29,42.805,6.029,4330,1995,197.261,60.324,13.287
2017-11-01T09:01:29,42.805,6.029,4330,1995,197.283,60.330,13.287
2017-11-01T09:04:29,42.805,6.029,4330,1995,197.081,60.268,13.287
2017-11-01T09:07:29,42.805,6.029,4330,1995,197.107,60.276,13.287
2017-11-01T09:10:29,42.805,6.029,4330,1995,196.988,60.240,13.287
2017-11-01T09:13:29,42.805,6.029,4330,1995,197.014,60.248,13.287
2017-11-01T09:16:29,42.805,6.029,4330,1995,197.101,60.275,13.287
2017-11-01T09:19:29,42.805,6.029,4330,1995,196.906,60.215,13.287
2017-11-01T09:22:29,42.805,6.029,4330,1995,197.049,60.258,13.287
2017-11-01T09:25:29,42.805,6.029,4330,1995,197.088,60.270,13.287
2017-11-01T09:28:29,42.805,6.029,4330,1995,196.996,60.243,13.287
2017-11-01T09:31:29,42.805,6.029,4330,1995,196.796,60.181,13.287
2017-11-01T09:34:29,42.805,6.029,4330,1995,196.793,60.180,13.287
2017-11-01T09:37:29,42.805,6.029,4330,1995,196.819,60.188,13.287
2017-11-01T09:40:29,42.805,6.029,4330,1995,196.903,60.214,13.287
2017-11-01T09:43:29,42.805,6.029,4330,1995,197.099,60.274,13.287
2017-11-01T09:46:29,42.805,6.029,4330,1995,197.107,60.277,13.287
2017-11-01T09:49:29,42.805,6.029,4330,1995,197.143,60.287,13.287
2017-11-01T09:52:29,42.805,6.029,4330,1995,197.002,60.244,13.287
2017-11-01T09:55:29,42.805,6.029,4330,1995,197.044,60.258,13.287
2017-11-01T09:58:29,42.805,6.029,4330,1995,196.933,60.224,13.287
2017-11-01T10:01:29,42.805,6.029,4330,1995,197.005,60.245,13.287
2017-11-01T10:04:29,42.805,6.029,4330,1995,197.083,60.269,13.287
2017-11-01T10:07:29,42.805,6.029,4330,1995,197.073,60.267,13.288
2017-11-01T10:10:29,42.805,6.029,4330,1995,197.153,60.290,13.287
2017-11-01T10:13:29,42.805,6.029,4330,1995,197.001,60.245,13.287
2017-11-01T10:16:29,42.805,6.029,4330,1995,197.115,60.278,13.286
2017-11-01T10:19:29,42.805,6.029,4330,1995,197.090,60.272,13.287
2017-11-01T10:22:29,42.805,6.029,4330,1995,197.195,60.303,13.287
2017-11-01T10:25:29,42.805,6.029,4330,1995,197.262,60.324,13.287
2017-11-01T10:28:29,42.805,6.029,4330,1995,197.218,60.310,13.287
2017-11-01T10:31:29,42.805,6.029,4330,1995,196.983,60.239,13.287
2017-11-01T10:34:29,42.805,6.029,4330,1995,197.039,60.255,13.286
2017-11-01T10:37:29,42.805,6.029,4330,1995,197.226,60.313,13.287
2017-11-01T10:40:29,42.805,6.029,4330,1995,197.192,60.302,13.287
2017-11-01T10:43:29,42.805,6.029,4330,1995,197.098,60.274,13.287
2017-11-01T10:46:29,42.805,6.029,4330,1995,197.250,60.320,13.286
2017-11-01T10:49:29,42.805,6.029,4330,1995,197.114,60.279,13.287
2017-11-01T10:52:29,42.805,6.029,4330,1995,197.130,60.283,13.287
2017-11-01T10:55:29,42.805,6.029,4330,1995,197.123,60.281,13.287
2017-11-01T10:58:29,42.805,6.029,4330,1995,197.093,60.272,13.287
2017-11-01T11:01:29,42.805,6.029,4330,1995,197.146,60.288,13.287
2017-11-01T11:04:29,42.805,6.029,4330,1995,196.972,60.235,13.287
2017-11-01T11:07:29,42.805,6.029,4330,1995,197.200,60.305,13.287
2017-11-01T11:10:29,42.805,6.029,4330,1995,197.232,60.315,13.287
2017-11-01T11:13:29,42.805,6.029,4330,1995,197.278,60.328,13.287
2017-11-01T11:16:29,42.805,6.029,4330,1995,197.242,60.318,13.287
2017-11-01T11:19:29,42.805,6.029,4330,1995,197.212,60.309,13.287
2017-11-01T11:22:29,42.805,6.029,4330,1995,197.216,60.309,13.287
2017-11-01T11:25:29,42.805,6.029,4330,1995,197.153,60.290,13.287
2017-11-01T11:28:29,42.805,6.029,4330,1995,197.213,60.309,13.287
2017-11-01T11:31:29,42.805,6.029,4330,1995,197.308,60.337,13.286
2017-11-01T11:34:29,42.805,6.029,4330,1995,197.102,60.275,13.287
2017-11-01T11:37:29,42.805,6.029,4330,1995,197.155,60.290,13.286
2017-11-01T11:40:29,42.805,6.029,4330,1995,197.187,60.300,13.286
2017-11-01T11:43:29,42.805,6.029,4330,1995,197.178,60.298,13.287
2017-11-01T11:46:29,42.805,6.029,4330,1995,197.219,60.310,13.286
2017-11-01T11:49:29,42.805,6.029,4330,1995,197.038,60.255,13.286
2017-11-01T11:52:29,42.805,6.029,4330,1995,197.148,60.288,13.286
2017-11-01T11:55:29,42.805,6.029,4330,1995,197.144,60.287,13.286
2017-11-01T11:58:29,42.805,6.029,4330,1995,197.179,60.298,13.286
2017-11-01T12:01:29,42.805,6.029,4330,1995,197.301,60.335,13.286
2017-11-01T12:04:29,42.805,6.029,4330,1995,197.198,60.303,13.286
2017-11-01T12:07:29,42.805,6.029,4330,1995,197.067,60.264,13.286
2017-11-01T12:10:29,42.805,6.029,4330,1995,197.170,60.295,13.286
2017-11-01T12:13:29,42.805,6.029,4330,1995,197.264,60.324,13.286
2017-11-01T12:16:29,42.805,6.029,4330,1995,197.167,60.294,13.286
2017-11-01T12:19:29,42.805,6.029,4330,1995,196.993,60.241,13.286
2017-11-01T12:22:29,42.805,6.029,4330,1995,196.910,60.215,13.286
2017-11-01T12:25:29,42.805,6.029,4330,1995,197.091,60.271,13.286
2017-11-01T12:28:29,42.805,6.029,4330,1995,196.995,60.242,13.286
2017-11-01T12:31:29,42.805,6.029,4330,1995,197.058,60.260,13.286
2017-11-01T12:34:29,42.805,6.029,4330,1995,197.249,60.319,13.286
2017-11-01T12:37:29,42.805,6.029,4330,1995,197.182,60.298,13.286
2017-11-01T12:40:29,42.805,6.029,4330,1995,197.175,60.296,13.286
2017-11-01T12:43:29,42.805,6.029,4330,1995,197.321,60.341,13.286
2017-11-01T12:46:29,42.805,6.029,4330,1995,197.182,60.299,13.286
2017-11-01T12:49:29,42.805,6.029,4330,1995,197.172,60.295,13.286
2017-11-01T12:52:29,42.805,6.029,4330,1995,197.119,60.279,13.286
2017-11-01T12:55:29,42.805,6.029,4330,1995,197.193,60.302,13.286
2017-11-01T12:58:29,42.805,6.029,4330,1995,197.153,60.290,13.286
2017-11-01T13:01:29,42.805,6.029,4330,1995,197.121,60.280,13.286
2017-11-01T13:04:29,42.805,6.029,4330,1995,197.141,60.286,13.286
2017-11-01T13:07:29,42.805,6.029,4330,1995,197.084,60.269,13.286
2017-11-01T13:10:29,42.805,6.029,4330,1995,197.058,60.261,13.286
2017-11-01T13:13:29,42.805,6.029,4330,1995,197.048,60.258,13.286
2017-11-01T13:16:29,42.805,6.029,4330,1995,197.141,60.286,13.286
2017-11-01T13:19:29,42.805,6.029,4330,1995,197.118,60.279,13.286
2017-11-01T13:22:29,42.805,6.029,4330,1995,197.001,60.243,13.286
2017-11-01T13:25:29,42.805,6.029,4330,1995,197.022,60.249,13.286
2017-11-01T13:28:29,42.805,6.029,4330,1995,197.195,60.302,13.286
2017-11-01T13:31:29,42.805,6.029,4330,1995,197.143,60.287,13.286
2017-11-01T13:34:29,42.805,6.029,4330,1995,197.224,60.311,13.286
2017-11-01T13:37:29,42.805,6.029,4330,1995,197.365,60.354,13.286
2017-11-01T13:40:29,42.805,6.029,4330,1995,197.344,60.348,13.286
2017-11-01T13:43:29,42.805,6.029,4330,1995,197.241,60.317,13.286
2017-11-01T13:46:29,42.805,6.029,4330,1995,197.097,60.272,13.286
2017-11-01T13:49:29,42.805,6.029,4330,1995,197.199,60.304,13.286
2017-11-01T13:52:29,42.805,6.029,4330,1995,197.302,60.335,13.286
2017-11-01T13:55:29,42.805,6.029,4330,1995,197.307,60.337,13.286
2017-11-01T13:58:29,42.805,6.029,4330,1995,197.394,60.363,13.286
2017-11-01T14:01:29,42.805,6.029,4330,1995,197.528,60.404,13.286
2017-11-01T14:04:29,42.805,6.029,4330,1995,197.430,60.374,13.286
2017-11-01T14:07:29,42.805,6.029,4330,1995,197.408,60.367,13.286
2017-11-01T14:10:29,42.805,6.029,4330,1995,197.408,60.367,13.286
2017-11-01T14:13:29,42.805,6.029,4330,1995,197.601,60.426,13.286
2017-11-01T14:16:29,42.805,6.029,4330,1995,197.636,60.437,13.286
2017-11-01T14:19:29,42.805,6.029,4330,1995,197.607,60.429,13.286
2017-11-01T14:22:29,42.805,6.029,4330,1995,197.579,60.420,13.286
2017-11-01T14:25:29,42.805,6.029,4330,1995,197.618,60.432,13.286
2017-11-01T14:28:29,42.805,6.029,4330,1995,197.598,60.426,13.286
2017-11-01T14:31:29,42.805,6.029,4330,1995,197.500,60.396,13.286
2017-11-01T14:34:29,42.805,6.029,4330,1995,197.650,60.441,13.286
2017-11-01T14:37:29,42.805,6.029,4330,1995,197.575,60.419,13.286
2017-11-01T14:40:29,42.805,6.029,4330,1995,197.551,60.411,13.286
2017-11-01T14:43:29,42.805,6.029,4330,1995,197.308,60.337,13.286
2017-11-01T14:46:29,42.805,6.029,4330,1995,197.362,60.353,13.286
2017-11-01T14:49:29,42.805,6.029,4330,1995,197.506,60.398,13.286
2017-11-01T14:52:29,42.805,6.029,4330,1995,197.596,60.425,13.286
2017-11-01T14:55:29,42.805,6.029,4330,1995,197.683,60.452,13.286
2017-11-01T14:58:29,42.805,6.029,4330,1995,197.703,60.457,13.286
2017-11-01T15:01:29,42.805,6.029,4330,1995,197.686,60.453,13.286
2017-11-01T15:04:29,42.805,6.029,4330,1995,197.731,60.466,13.286
2017-11-01T15:07:29,42.805,6.029,4330,1995,197.686,60.453,13.286
2017-11-01T15:10:29,42.805,6.029,4330,1995,197.622,60.433,13.286
2017-11-01T15:13:29,42.805,6.029,4330,1995,197.725,60.465,13.286
2017-11-01T15:16:29,42.805,6.029,4330,1995,197.655,60.443,13.286
2017-11-01T15:19:29,42.805,6.029,4330,1995,197.743,60.470,13.286
2017-11-01T15:22:29,42.805,6.029,4330,1995,197.714,60.461,13.286
2017-11-01T15:25:29,42.805,6.029,4330,1995,197.718,60.463,13.286
2017-11-01T15:28:29,42.805,6.029,4330,1995,197.742,60.470,13.287
2017-11-01T15:31:29,42.805,6.029,4330,1995,197.832,60.497,13.286
2017-11-01T15:34:29,42.805,6.029,4330,1995,197.698,60.457,13.286
2017-11-01T15:37:29,42.805,6.029,4330,1995,197.750,60.472,13.286
2017-11-01T15:40:29,42.805,6.029,4330,1995,197.837,60.499,13.286
2017-11-01T15:43:29,42.805,6.029,4330,1995,197.971,60.540,13.286
2017-11-01T15:46:29,42.805,6.029,4330,1995,197.925,60.526,13.286
2017-11-01T15:49:29,42.805,6.029,4330,1995,197.979,60.542,13.286
2017-11-01T15:52:29,42.805,6.029,4330,1995,197.995,60.547,13.286
2017-11-01T15:55:29,42.805,6.029,4330,1995,198.088,60.576,13.286
2017-11-01T15:58:29,42.805,6.029,4330,1995,198.187,60.606,13.286
2017-11-01T16:01:29,42.805,6.029,4330,1995,198.253,60.626,13.286
2017-11-01T16:04:29,42.805,6.029,4330,1995,198.329,60.650,13.286
2017-11-01T16:07:29,42.805,6.029,4330,1995,198.318,60.646,13.286
2017-11-01T16:10:29,42.805,6.029,4330,1995,198.318,60.646,13.286
2017-11-01T16:13:29,42.805,6.029,4330,1995,198.332,60.650,13.286
2017-11-01T16:16:29,42.805,6.029,4330,1995,198.509,60.705,13.286
2017-11-01T16:19:29,42.805,6.029,4330,1995,198.509,60.705,13.286
2017-11-01T16:22:29,42.805,6.029,4330,1995,198.490,60.699,13.286
2017-11-01T16:25:29,42.805,6.029,4330,1995,198.548,60.716,13.286
2017-11-01T16:28:29,42.805,6.029,4330,1995,198.527,60.710,13.286
2017-11-01T16:31:29,42.805,6.029,4330,1995,198.556,60.719,13.286
2017-11-01T16:34:29,42.805,6.029,4330,1995,198.693,60.760,13.286
2017-11-01T16:37:29,42.805,6.029,4330,1995,198.639,60.744,13.286
2017-11-01T16:40:29,42.805,6.029,4330,1995,198.688,60.759,13.286
2017-11-01T16:43:29,42.805,6.029,4330,1995,198.763,60.782,13.286
2017-11-01T16:46:29,42.805,6.029,4330,1995,198.705,60.765,13.286
2017-11-01T16:49:29,42.805,6.029,4330,1995,198.776,60.786,13.286
2017-11-01T16:52:29,42.805,6.029,4330,1995,198.693,60.761,13.286
2017-11-01T16:55:29,42.805,6.029,4330,1995,198.709,60.766,13.287
2017-11-01T16:58:29,42.805,6.029,4330,1995,198.789,60.790,13.286
2017-11-01T17:01:29,42.805,6.029,4330,1995,198.807,60.795,13.286
2017-11-01T17:04:29,42.805,6.029,4330,1995,198.913,60.827,13.286
2017-11-01T17:07:29,42.805,6.029,4330,1995,198.858,60.811,13.286
2017-11-01T17:10:29,42.805,6.029,4330,1995,198.896,60.823,13.286
2017-11-01T17:13:29,42.805,6.029,4330,1995,198.876,60.817,13.286
2017-11-01T17:16:29,42.805,6.029,4330,1995,198.882,60.818,13.286
2017-11-01T17:19:29,42.805,6.029,4330,1995,198.897,60.823,13.286
2017-11-01T17:22:29,42.805,6.029,4330,1995,198.876,60.817,13.286
2017-11-01T17:25:29,42.805,6.029,4330,1995,198.774,60.785,13.286
2017-11-01T17:28:29,42.805,6.029,4330,1995,198.946,60.838,13.286
2017-11-01T17:31:29,42.805,6.029,4330,1995,198.848,60.808,13.286
2017-11-01T17:34:29,42.805,6.029,4330,1995,198.821,60.799,13.286
2017-11-01T17:37:29,42.805,6.029,4330,1995,198.817,60.798,13.286
2017-11-01T17:40:29,42.805,6.029,4330,1995,198.882,60.818,13.286
2017-11-01T17:43:29,42.805,6.029,4330,1995,198.873,60.815,13.286
2017-11-01T17:46:29,42.805,6.029,4330,1995,198.865,60.813,13.286
2017-11-01T17:49:29,42.805,6.029,4330,1995,198.857,60.811,13.286
2017-11-01T17:52:29,42.805,6.029,4330,1995,198.871,60.815,13.286
2017-11-01T17:55:29,42.805,6.029,4330,1995,198.778,60.786,13.286
2017-11-01T17:58:29,42.805,6.029,4330,1995,198.796,60.792,13.286
2017-11-01T18:01:29,42.805,6.029,4330,1995,198.785,60.789,13.286
2017-11-01T18:04:29,42.805,6.029,4330,1995,198.745,60.776,13.286
2017-11-01T18:07:29,42.805,6.029,4330,1995,198.824,60.800,13.286